Location: Newark
(46.1292°N, 1.0086°W)
Time: 12:31:25
(UTC+00:00)

Vanguard 3 - Pass Details

Date: 21 November 2019
Orbit: 508 x 3263 km, 33.3° (Epoch: 16 December)

Event Time Altitude Azimuth Distance (km) Brightness Sun altitude
Rises 14:11:43 0° 243° (WSW) 6,866 13.0 16.6°
Reaches altitude 10° 14:16:14 10° 239° (WSW) 6,031 13.1 16.1°
Maximum altitude 14:34:52 52° 171° (S) 3,678 11.1 14.1°
Drops below altitude 10° 14:50:40 10° 102° (ESE) 5,205 11.0 12.3°
Sets 14:54:13 0° 97° (E) 5,910 11.2 11.9°
